Regional Weather Roundup
Issued by NWS Goodland, KS

Home | Current Version | Previous Version | Graphics & Text | Print | Product List | Glossary On
Versions: 1 2 3 4 5 6 7 8 9 10 11 12 13 14 15 16 17 18 19 20 21 22 23 24 25 26 27 28 29 30 31 32 33 34 35 36 37 38 39 40 41 42 43 44 45 46 47 48 49 50
000
ASUS43 KGLD 191059
RWRGLD

GOODLAND FORECAST AREA HOURLY WEATHER ROUNDUP
NATIONAL WEATHER SERVICE GOODLAND KS
400 AM MST FRI JAN 19 2018

...OFFICIAL OBSERVATIONS...

CITY           SKY/WX    TMP DP  RH WIND       PRES   REMARKS
GOODLAND KS    MOCLDY    40  15  36 SW10      29.79F
HILL CITY KS   CLOUDY    32  15  49 W5        29.80F
IMPERIAL NEB   MOCLDY    30  22  72 CALM      29.77F
MCCOOK NEB     PTCLDY    32  22  66 W15       29.78F
AKRON CO       MOCLDY    45  12  26 SW14      29.79F
BURLINGTON CO  MOCLDY    40  14  34 W10       29.83F
LIMON CO       CLOUDY    23  13  65 N6        29.85F
$$

...UNOFFICIAL OBSERVATIONS...

CITY           SKY/WX    TMP DP  RH WIND       PRES   REMARKS
LENORA KS        N/A     39  32  76 SW10        N/A
NORTON KS      CLEAR     34  18  51 SW12      29.77
SHARON SPRINGS   N/A     33  13  44 SW13        N/A
TRENTON NEB      N/A     35  32  89 CALM        N/A
KIT CARSON CO    N/A     25   9  50 CALM        N/A
YUMA CO        FAIR      37  12  35 SW10      29.78F
$$




USA.gov is the U.S. government's official web portal to all federal, state and local government web resources and services.